Weather in Kichmen'ga

Russia / Vologda Oblast     60°03′04″N   45°35′59″E
temp.,
°C
wind,
m/s
gust,
m/s
humid.,
%
clouds,
%
prec.,
mm/h
press.,
hPa
HPBL,
m
16 may, sun
sun1600:00+14sse412975 0.0 1010307
03:00+14s413962 0.0 1009386
06:00+15ssw4129140 0.0 1010524
09:00+19ssw611680 0.0 10101220
12:00+22sw7125018 0.2 10092249
15:00+23sw6114928 0.3 10092363
18:00+20wsw512600 0.2 10091544
21:00+14ssw3108942 1.0 1011261
17 may, mon
mon1700:00+13sw3119321 0.0 1011345
03:00+12sw39974 0.0 1012241
06:00+14wsw38840 0.0 1013378
09:00+19w476349 0.0 10151312
12:00+22w584962 0.0 10152036
15:00+21wnw475185 0.0 10171874
18:00+19nnw2462100 0.0 1018888
21:00+14n117927 0.0 101911
18 may, tue
tue1800:00+11e279262 0.0 1020135
03:00+10e269490 0.0 1021133
06:00+13ese36785 0.0 1021250
09:00+19ese45575 0.0 1021737
12:00+23ese454712 0.0 10201155
15:00+24se4546100 0.0 10191336
18:00+22se376171 0.0 1018430
21:00+16se38845 0.0 1018162
19 may, wed
wed1900:00+15se313835 0.0 1018310
03:00+14se311875 0.0 1018245
06:00+17sse311764 0.0 1018336
09:00+23s59555 0.0 1017677
12:00+27s573984 0.0 10171424
15:00+28s563638 0.0 10172008
18:00+25se385397 0.0 1016460
21:00+19se312745 0.0 1016306
20 may, thu
thu2000:00+16sse312824 0.0 1016265
03:00+14sse210834 0.0 1016212
06:00+17se39675 0.0 1015280
09:00+23se48482 0.0 1014704
12:00+27sse58375 0.0 10131657
15:00+27sse57355 0.0 10122266
18:00+24sse59425 0.0 10111039
21:00+21sse513667 0.0 1011863